STARLINK-31300, 58878

Orbit data source: Space-Track

STARLINK-31300, 58878 is a payload satellite owned by SpaceX/Seattle (US) in LEO that was launched on Mon, 29 Jan 2024 UTC via an FALCON 9 launch vehicle from the Air Force Western Test Range (AFWTR). Payload-class satellites include a variety of spacecraft equipped with specific instruments for various scientific and technological missions. These include communications satellites like Starlink; space stations such as the ISS; scientific satellites like the Hubble; Earth observation satellites from companies like Planet Labs, Umbra, and HawkEye 360; GPS; miniature CubeSats for education and research; and military/defense satellites.

Loading next visibility...
Identifier
58878, 2024-020C
Orbit
LEO
Country
Flag of USUS
Related business
Manufacturer
SpaceX/Seattle
Mission
Operational Commercial Communications
Bus & Motor
STARLINK V2M, Unknown motor
Mass
730 kg wet, ~700 kg dry
Launch date (UTC)
2024-01-29 (2 years ago)
Launch vehicle
FALCON 9
Launch site
Air Force Western Test Range (AFWTR)
Object type
Payload
Rocket body
Debris
Shape & HBR
Box + 2 Pan, 17.7 m
Radar Cross Section
33.884 m², Large (>1 m²)

Expand to show TLE details & history
Last TLE update: 2 days ago

TLE from 2 days ago
0 STARLINK-31300
1 58878U 24020C   26171.40583839  .00002102  00000-0  73352-4 0  9990
2 58878  53.1594 204.1673 0001161  87.9594 272.1541 15.34389877133812
Epoch: 2026-06-20T09:44Z
TLE epoch observation values (Epoch: 2026-06-20T09:44:24.436Z)
Latitude
-0.00008°
Longitude
149.44449°
Altitude
463.605 km
Speed
7.636 km/s
True Right ascension
13h 36m 40s
True Declination
0° 00' 00"
Sunlit
Object was in full shadow at epoch
Visualization orbit readout
Latitude
Unknown
Longitude
Unknown
Altitude
Unknown
Speed
Unknown
Apparent Right ascension
Unknown
Apparent Declination
Unknown
Sunlit
N/A
Visualization observer readout
Local Sidereal Time
21:28:45
Azimuth
Unknown
Elevation
Unknown
Doppler factor
Unknown
Orbital elements
Apogee altitude
463.785 km
Perigee altitude
462.196 km
Semi-major axis
6,841.127 km
Eccentricity
0.00012
Inclination
53.1594°
RAAN
204.1673°
Arg. of periapsis
87.9594°
True anomaly
272.14081°
Mean anomaly
272.1541°
Eccentric anomaly
272.14745°
Mean motion
3.83576 °/min
Orbital period
93.85 mins
BSTAR
0.000073352
Loading maneuver chart data...
Computing Atmospheric mass density...
Loading historical data...
Loading historical data...
Loading historical data...
Loading historical data...
Loading historical data...
Loading historical data...
Loading historical data...

Documentation

Showing up to 5 results
|